Regional Weather Roundup
Issued by NWS

Home | Current Version | Previous Version | Graphics & Text | Print | Product List | Glossary On
Versions: 1 2 3 4 5 6 7 8 9 10 11 12 13 14 15 16 17 18 19 20 21 22 23 24 25 26 27 28 29 30 31 32 33 34 35 36 37 38 39 40 41 42 43 44 45 46 47 48 49 50
942
ASUS43 KDTX 280610
RWRMI
MICHIGAN HOURLY REGIONAL WEATHER ROUNDUP
NATIONAL WEATHER SERVICE DETROIT/PONTIAC MI
200 AM EDT TUE MAR 28 2017

NOTE: "FAIR" INDICATES FEW OR NO CLOUDS BELOW 12,000 FEET WITH NO
SIGNIFICANT WEATHER AND/OR OBSTRUCTION TO VISIBILITY.

MIZ047>049-052>055-059>063-066>070-074>076-081>083-280700-
SOUTHEAST LOWER MICHIGAN

CITY           SKY/WX    TMP DP  RH WIND       PRES   REMARKS
ADRIAN         CLOUDY    50  48  93 N8        29.90F
6HR MIN TEMP:  50; 6HR MAX TEMP:  55; 6HR PCP: TRACE;

ANN ARBOR      CLOUDY    51  46  83 N7        29.90S
BAD AXE        CLOUDY    37  37 100 N6        29.96S FOG     WCI  33
6HR MIN TEMP:  37; 6HR MAX TEMP:  41;

CARO           CLOUDY    39  38  96 NE5       29.95S
DETROIT CITY   CLOUDY    46  44  93 NE8       29.91S
6HR MIN TEMP:  46; 6HR MAX TEMP:  56;

DETROIT        CLOUDY    53  47  79 N9        29.90F
6HR MIN TEMP:  53; 6HR MAX TEMP:  59;

FLINT          CLOUDY    45  42  89 N7        29.93S
6HR MIN TEMP:  45; 6HR MAX TEMP:  51;

GROSSE ILE     CLOUDY    50  47  89 NE10      29.88F
6HR MIN TEMP:  44; 6HR MAX TEMP:  52;

HILLSDALE      CLOUDY    48  45  87 N6        29.89F
HOWELL         CLOUDY    46  42  84 N3        29.92S
6HR MIN TEMP:  46; 6HR MAX TEMP:  53;


CITY           SKY/WX    TMP DP  RH WIND       PRES   REMARKS
JACKSON        CLOUDY    49  44  83 N8        29.91F
6HR MIN TEMP:  49; 6HR MAX TEMP:  54;

LAMBERTVILLE   CLOUDY    54  49  82 N3        29.88S
6HR MIN TEMP:  51; 6HR MAX TEMP:  58;

LANSING        CLOUDY    46  40  79 N8        29.94S
6HR MIN TEMP:  45; 6HR MAX TEMP:  50;

LAPEER         CLOUDY    41  40  97 NE8       29.94R
6HR MIN TEMP:  41; 6HR MAX TEMP:  52;

MASON          CLOUDY    46  43  88 N5        29.93S
MONROE         CLOUDY    52  49  90 N9        29.88S
MT. CLEMENS    CLOUDY    44  44 100 NE10      29.91R
6HR MIN TEMP:  44; 6HR MAX TEMP:  55;

PONTIAC        CLOUDY    48  44  86 N5        29.90S
6HR MIN TEMP:  48; 6HR MAX TEMP:  54;

PORT HOPE        N/A     36  34  92 NW3       29.95S
6HR MIN TEMP:  36; 6HR MAX TEMP:  37; 6HR PCP:  0.01;

PORT HURON     CLOUDY    37  36  93 N7        29.94S FOG     WCI  32
TRI CITIES     CLOUDY    40  40 100 NE9       29.97R FOG     WCI  34
6HR MIN TEMP:  39; 6HR MAX TEMP:  49;

MIDLAND        CLOUDY    40  39  97 E3        29.97R FOG
6HR MIN TEMP:  40; 6HR MAX TEMP:  49;

TROY           CLOUDY    50  46  84 CALM      29.93S
SAGINAW HB     CLOUDY    41  37  87 NE9       29.96R FOG
$$
MIZ043>046-050>051-056>058-064>065-071>073-077>080-280700-
SOUTHWEST LOWER MICHIGAN

CITY           SKY/WX    TMP DP  RH WIND       PRES   REMARKS
BATTLE CREEK   CLOUDY    47  43  86 N6        29.93S
6HR MIN TEMP:  46; 6HR MAX TEMP:  51;

BENTON HARBOR  CLOUDY    37  35  92 CALM      29.96S
6HR MIN TEMP:  37; 6HR MAX TEMP:  43;

BIG RAPIDS     CLOUDY    38  36  91 CALM      29.97R
6HR MIN TEMP:  38; 6HR MAX TEMP:  42;

COLDWATER      CLOUDY    49  46  92 N6        29.91F
6HR MIN TEMP:  49; 6HR MAX TEMP:  53;

FREMONT        CLOUDY    39  37  95 N5        29.97S
HOLLAND        CLOUDY    41  37  86 N6        29.97R
6HR MIN TEMP:  41; 6HR MAX TEMP:  44;

GRAND RAPIDS   CLOUDY    45  42  89 N7        29.95R
6HR MIN TEMP:  45; 6HR MAX TEMP:  48;

IONIA          CLOUDY    44  40  88 N6        29.94S
6HR MIN TEMP:  43; 6HR MAX TEMP:  48;

KALAMAZOO      CLOUDY    44  39  82 N7        29.94R
6HR MIN TEMP:  43; 6HR MAX TEMP:  50;

LUDINGTON      CLOUDY    36  36  98 CALM      30.00S
6HR MIN TEMP:  35; 6HR MAX TEMP:  37;

MARSHALL       CLOUDY    47  45  92 N7        29.92S
6HR MIN TEMP:  47; 6HR MAX TEMP:  52;

MOUNT PLEASANT CLOUDY    40  37  87 N6        29.96S
6HR MIN TEMP:  40; 6HR MAX TEMP:  46;

MUSKEGON       CLOUDY    39  36  89 N7        29.98S WCI  34
6HR MIN TEMP:  38; 6HR MAX TEMP:  43;

SOUTH HAVEN    CLOUDY    38  37  96 CALM      29.96S
$$
MIZ016>042-280700-
NORTHERN LOWER MICHIGAN

CITY           SKY/WX    TMP DP  RH WIND       PRES   REMARKS
ALPENA         CLOUDY    36  36 100 NW6       29.99R FOG     WCI  31
6HR MIN TEMP:  36; 6HR MAX TEMP:  40;

BEAVER ISLAND  CLOUDY    32  32  99 N5        30.03R WCI  28
6HR MIN TEMP:  32; 6HR MAX TEMP:  36;

BELLAIRE       CLOUDY    36  33  90 CALM      30.02R
6HR MIN TEMP:  36; 6HR MAX TEMP:  37;

CADILLAC       CLOUDY    35  34  96 N3        29.97S FOG
CHARLEVOIX     CLOUDY    34  34 100 N3        30.04R
6HR MIN TEMP:  34; 6HR MAX TEMP:  37;

FRANKFORT      CLOUDY    37  34  89 CALM      30.01S
GAYLORD        CLOUDY    36  33  89 VRB3      29.97R FOG
6HR MIN TEMP:  36; 6HR MAX TEMP:  36;

GRAYLING       CLOUDY    37  34  87 NW3       29.98S
HARBOR SPRINGS CLOUDY    33  33 100 CALM      30.00S
HOUGHTON LAKE  CLOUDY    36  34  92 NW3       29.97S
6HR MIN TEMP:  36; 6HR MAX TEMP:  39;

MANISTEE       CLOUDY    37  35  92 N3        30.01R
OSCODA         CLOUDY    38  37  97 NW5       29.97R WCI  35
6HR MIN TEMP:  37; 6HR MAX TEMP:  38;

PELLSTON       CLOUDY    35  32  88 NW6       30.01R WCI  30
6HR MIN TEMP:  35; 6HR MAX TEMP:  38;

ROGERS CITY    CLOUDY    36  34  92 NW7       30.00S WCI  30
TRAVERSE CITY  CLOUDY    37  34  89 N3        30.01R
6HR MIN TEMP:  37; 6HR MAX TEMP:  39;

$$
MIZ007>008-015-280700-
EASTERN UPPER MICHIGAN

CITY           SKY/WX    TMP DP  RH WIND       PRES   REMARKS
KINROSS        CLOUDY    33  32  96 N8        30.01R WCI  26
6HR MIN TEMP:  33; 6HR MAX TEMP:  34; 6HR PCP: TRACE;

MACKINAC ISLAN CLOUDY    33  33 100 N6        30.00S WCI  27
6HR MIN TEMP:  33; 6HR MAX TEMP:  35;

NEWBERRY       FOG       31  30  97 NW3       30.01R VSB 1/2
6HR MIN TEMP:  31; 6HR MAX TEMP:  34;

S. S. MARIE    CLOUDY    36  33  89 N5        30.01R WCI  32
6HR MIN TEMP:  35; 6HR MAX TEMP:  36; 6HR PCP: TRACE;

MUNISING         N/A     31  30  96 CALM      30.03S
6HR MIN TEMP:  31; 6HR MAX TEMP:  34;

$$
MIZ004>006-011>014-085-280700-
CENTRAL UPPER MICHIGAN

CITY           SKY/WX    TMP DP  RH WIND       PRES   REMARKS
MANISTIQUE     FOG       30  30 100 N6        30.02S VSB 1   WCI  24
ESCANABA       CLEAR     27  26  96 W3        30.04S
6HR MIN TEMP:  27; 6HR MAX TEMP:  39;

MENOMINEE        N/A    N/A N/A N/A MISG        N/A
SAWYER-GWINN   CLEAR     31  30  99 N5        30.02S FOG     WCI  26
6HR MIN TEMP:  29; 6HR MAX TEMP:  37;

$$
MIZ001>003-009>011-084-280700-
WESTERN UPPER MICHIGAN

CITY           SKY/WX    TMP DP  RH WIND       PRES   REMARKS
IRON MOUNTAIN  FOG       27  25  92 CALM      30.01R VSB 1/2
6HR MIN TEMP:  26; 6HR MAX TEMP:  40;

HOUGHTON       CLEAR     32  28  85 NW8       30.03R WCI  25
6HR MIN TEMP:  32; 6HR MAX TEMP:  35;

COPPER HARBOR    N/A     31  29  92 W3        30.03S
6HR MIN TEMP:  29; 6HR MAX TEMP:  35;

IRONWOOD       CLEAR     26  25  96 CALM      30.05R
6HR MIN TEMP:  25; 6HR MAX TEMP:  42;

$$

ABBREVIATIONS USED IN REMARKS
   TC - TEMPERATURE IN CELSIUS
  WCI - WIND CHILL INDEX
   HX - HEAT INDEX
  VSB - VISIBILITY





USA.gov is the U.S. government's official web portal to all federal, state and local government web resources and services.